Погода в Кручи

Россия / Орловская область     52°34′15″N   37°17′14″E
темп.,
°C
ветер,
м/с
пор.,
м/с
влажн.,
%
обл.,
%
осадки,
мм/ч
давл.,
гПа
погр.,
м
13 мая, чт
чт1300:00+8вюв4108842 0.0 1016264
03:00+8вюв4109081 0.0 1016283
06:00+9юв5119282 0.1 1016442
09:00+10вюв61188100 1.5 1016587
12:00+11юв598899 0.3 1016703
15:00+15ююв576953 0.9 10151375
18:00+15ю3675100 0.3 1014865
21:00+11юв34901 0.3 101546
14 мая, пт
пт1400:00+10юв349399 0.0 101659
03:00+10юв339478 0.0 101639
06:00+11в3795100 0.0 1015146
09:00+16вюв5883100 0.1 1014423
12:00+21юв710695 0.0 10131101
15:00+22ююв71170100 1.3 10111396
18:00+20ю61278100 0.9 1011556
21:00+15юв3489100 0.9 101156
15 мая, сб
сб1500:00+15ююв31296100 3.4 1010273
03:00+14ююв3597100 6.0 1010102
06:00+14ююв2294100 0.0 101052
09:00+18ююз3578100 0.0 1011427
12:00+21юз466877 0.8 10111284
15:00+21юз676238 1.6 10111398
18:00+19юз4774100 0.4 1011373
21:00+15юз23865 0.6 101229
16 мая, вс
вс1600:00+13ююз34925 0.0 101357
03:00+12юз34920 0.0 101362
06:00+12зюз35923 0.0 1014137
09:00+17юз23740 0.0 1014537
12:00+20зюз235920 0.0 10141114
15:00+22ююз1252100 0.0 10141662
18:00+21св236427 0.0 1013122
21:00+16св467658 0.0 101388
17 мая, пн
пн1700:00+15св5118298 0.0 1012222
03:00+15всв6148464 0.0 1012333
06:00+15в614889 0.0 1010337
09:00+19вюв61074100 0.0 1010396
12:00+24вюв8125736 0.0 10091035
15:00+25вюв71357100 0.0 10081250
18:00+22вюв71464100 0.0 1008736
21:00+19вюв5157727 0.0 1008361